Location: Astronomy Club of Akron Observatory
(40.9700°N, 81.5606°W)
Time: 11:17:25
(UTC-05:00)

Daily predictions for brighter satellites

Satellite Brightness Start Highest point End
(mag) Time Altitude Azimuth Time Altitude Azimuth Time Altitude Azimuth
SMAP 3.4 17:22:51 10° SE 17:27:12 42° ENE 17:31:35 10° N
IRS-1A Rocket 4.3 17:21:56 10° SSE 17:27:26 88° ENE 17:32:58 10° NNW
Cosmos 2218 Rocket 4.4 17:22:33 10° N 17:28:27 40° ENE 17:34:14 10° SE
Cosmos 2181 Rocket 4.1 17:23:09 10° S 17:29:25 70° E 17:35:49 10° NNE
Cosmos 1048 Rocket 4.2 17:24:33 10° NNW 17:29:53 85° WSW 17:35:15 10° SSE
Cosmos 1455 Rocket 4.0 17:28:06 10° NNE 17:31:50 26° ENE 17:35:33 10° SE
Cosmos 1536 2.8 17:27:56 10° N 17:32:01 86° E 17:36:06 10° S
Abrixas 4.3 17:33:31 10° NW 17:35:43 19° N 17:37:55 10° NE
OTV 4 2.3 17:37:18 10° WSW 17:39:56 28° SSW 17:42:34 10° SE
Cosmos 1295 Rocket 4.4 17:36:41 10° N 17:42:50 79° E 17:48:55 10° S
GEOS 3 Rocket 4.4 17:39:04 10° E 17:43:24 29° NE 17:47:44 10° NNW
Cosmos 1812 3.5 17:40:18 10° SSE 17:43:43 30° E 17:47:08 10° NNE
Cosmos 1844 Rocket 2.7 17:41:54 10° SSW 17:47:29 79° ESE 17:53:07 10° NNE
PAYLOAD A 4.1 17:44:00 10° S 17:48:46 75° WSW 17:53:44 10° NNW
Cosmos 1346 Rocket 4.3 17:47:10 10° SE 17:49:41 17° E 17:51:16 13° ENE
Cosmos 2341 Rocket 4.4 17:46:02 10° NNW 17:52:10 67° W 17:58:19 10° S
SPOT 3 Rocket 3.5 17:50:25 10° SSE 17:55:37 86° ENE 18:00:50 10° NNW
MSX 3.9 17:50:08 10° SSE 17:55:44 57° ENE 18:01:21 10° N
SL-8 R/B 4.2 17:52:52 10° SW 17:57:26 47° SE 18:00:58 16° ENE
Cosmos 1844 3.6 17:55:26 10° SSW 18:00:59 76° ESE 18:06:33 10° NNE
CZ-4 R/B 2.1 17:57:35 10° S 18:01:44 61° W 18:05:52 10° NNW
SL-08 R/B 4.5 17:55:30 10° N 18:01:53 68° E 18:08:08 10° SSE
SJ-12 4.2 17:59:04 10° S 18:03:07 71° WSW 18:07:15 10° NNW
CORIOLIS 4.1 17:58:57 10° SSE 18:04:22 87° ENE 18:09:48 10° NNW
COSMOS 2487 4.2 18:04:17 10° NNE 18:05:47 16° NE 18:05:47 16° NE
USA 234 3.8 18:01:05 10° NE 18:07:23 53° NNW 18:13:41 10° WSW
USA 32 4.1 18:05:14 10° S 18:10:28 82° W 18:15:43 10° N
ASTRO F (AKARI) 4.1 18:08:36 10° NNE 18:11:45 79° ESE 18:14:53 10° S
Meteor 1-12 Rocket 4.3 18:06:19 10° N 18:12:05 65° E 18:17:54 10° SSE
IDEFIX/ARIANE 42P 2.9 18:08:54 10° S 18:14:04 69° WSW 18:19:15 10° NNW
Cosmos 1975 3.0 18:10:09 10° N 18:14:06 47° E 18:18:00 10° SSE
Cosmos 2278 Rocket 2.2 18:12:33 10° S 18:18:06 63° ESE 18:23:00 14° NNE
COSMO-SKYMED 1 2.7 18:15:54 10° NNE 18:20:11 54° E 18:24:25 10° S
Cosmos 1544 Rocket 3.9 18:15:44 10° NNW 18:20:11 70° W 18:24:38 10° S
NOSS 3-3 (A) 4.0 18:15:56 10° SSW 18:22:00 64° ESE 18:26:54 18° NE
NOSS 3-3 (C) 4.0 18:16:02 10° SSW 18:22:06 63° ESE 18:26:58 18° NE
Nadezhda 3 Rocket 4.2 18:16:25 10° SSE 18:22:14 44° E 18:28:07 10° NNE
Cosmos 494 Rocket 4.0 18:21:58 10° NNW 18:27:14 89° NE 18:32:30 10° SSE
Tiangong 1 2.7 18:27:27 10° SSW 18:29:49 21° SSE 18:29:52 21° SSE
ISS -1.8 18:28:04 10° W 18:30:59 28° NNW 18:32:01 23° N
ATLAS 2AS CENTAUR R/B 3.1 18:23:02 10° NW 18:31:08 82° WSW 18:38:39 10° SSE
Meteor 1-13 Rocket 4.4 18:31:44 10° SSE 18:37:08 50° E 18:41:41 15° NNE
Genesis I 3.7 18:33:25 10° NNW 18:36:53 39° NE 18:36:53 39° NE
Cosmos 1484 Rocket 2.7 18:33:55 10° S 18:37:41 80° WSW 18:41:27 10° NNW
Cosmos 1536 Rocket 3.9 18:35:25 10° SSW 18:39:51 68° W 18:44:20 10° N
Cosmos 2082 Rocket 2.5 18:38:15 10° N 18:43:36 41° ENE 18:45:09 34° E
Cosmos 2251 Rocket 4.4 18:42:07 10° NNW 18:47:18 52° WSW 18:52:26 10° S
Cosmos 1833 Rocket 3.1 18:42:09 10° N 18:47:24 38° ENE 18:47:39 38° ENE
NOAA 12 4.0 18:45:27 10° SSE 18:50:40 63° ENE 18:55:53 10° N
Meteor 2-21 Rocket 4.3 18:48:44 10° N 18:54:57 76° E 19:01:06 10° SSE
METEOR-M 4.1 18:49:54 10° SSE 18:55:07 58° ENE 19:00:22 10° N
Cosmos 1500 3.6 18:52:58 10° NNW 18:56:46 63° W 19:00:33 10° S
Meteor 2-16 Rocket 4.3 18:53:50 10° N 18:59:54 67° E 19:05:56 10° SSE
Meteor 1-28 Rocket 3.1 19:00:17 80° NNW 19:00:28 86° WNW 19:04:15 10° SSW
Cosmos 921 Rocket 3.4 18:58:22 10° S 19:01:34 47° SSE 19:01:34 47° SSE
BREEZE M DEB (TANK) 2.3 18:56:15 10° SW 19:03:56 86° SE 19:04:05 81° E
BREEZE-M R/B 3.9 18:59:07 10° WSW 19:08:49 69° NNW 19:10:12 49° NNE
Okean 1-7 Rocket 3.5 19:04:34 10° S 19:09:07 89° ENE 19:09:30 75° N
Meteor 2-4 Rocket 3.9 19:04:06 10° S 19:08:15 46° SE 19:08:15 46° SE
SL-24 R/B - RUBIN 2 4.5 19:13:24 10° SSW 19:19:42 85° WNW 19:21:48 47° NNE
Cosmos 1535 Rocket 4.3 19:13:21 10° N 19:19:43 83° E 19:25:57 10° S
GEOS 3 Rocket 4.2 19:16:36 12° SSE 19:21:11 55° WSW 19:26:13 10° NW
Cosmos 1934 Rocket 3.8 19:16:25 10° N 19:22:35 69° E 19:28:49 10° SSE
Cosmos 1346 Rocket 4.5 19:22:19 10° SW 19:25:49 31° WNW 19:26:53 27° NW
Timation 2 Rocket 4.2 19:20:01 10° NNW 19:26:52 83° WSW 19:33:01 14° SSE
ATLAS 3B CENTAUR R/B 4.0 19:21:40 10° WSW 19:35:30 36° SSW 19:38:07 29° SSE
CZ-3B DEB 3.7 19:35:54 10° W 19:40:52 43° NNW 19:43:53 34° NNE
Cosmos 1821 Rocket 4.3 19:39:56 10° NNW 19:45:57 63° W 19:51:55 10° S
Cosmos 2297 4.3 19:41:13 10° SW 19:46:41 52° WNW 19:47:18 49° NW
Cosmos 2278 Rocket 4.3 19:58:29 10° W 20:02:40 21° NW 20:04:53 17° NNW
NOSS 3-4 (A) 4.3 19:59:44 10° NNW 20:04:34 48° NNW 20:04:34 48° NNW
NOSS 3-4 (C) 4.4 19:59:50 10° NNW 20:04:38 47° NNW 20:04:38 47° NNW
BREEZE M DEB (TANK) 4.0 20:02:15 10° WNW 20:06:13 71° NW 20:06:13 71° NW
Cosmos 2082 Rocket 4.0 20:22:44 10° NW 20:27:09 28° W 20:27:09 28° W
FALCON 9 R/B 4.2 20:42:44 10° W 20:51:03 34° WSW 20:51:03 34° WSW
